Weather History for Palacios, TX

Change the Weather History Date:

Wednesday, January 22, 2014

  Actual Average Record
Temperature  
Mean Temperature 50 °F -  
Max Temperature 64 °F 62 °F 79 °F (1993)
Min Temperature 36 °F 45 °F 24 °F (1954)
Degree Days  
Heating Degree Days 15    
Moisture  
Dew Point 40 °F    
Average Humidity 66    
Maximum Humidity 90    
Minimum Humidity 45    
Precipitation  
Precipitation 0.00 in - - ()
Sea Level Pressure  
Sea Level Pressure 30.15 in    
Wind  
Wind Speed 7 mph (SE)    
Max Wind Speed 15 mph    
Max Gust Speed -    
Visibility 10 miles    
Events      
Averages and records for this station are not official NWS values.
T = Trace of Precipitation, MM = Missing Value Source: NWS Daily Summary

Daily Weather History Graph

Daily Weather History Graph

Search for Another Location

Airport:

Trip Planner

Search our weather history database for the weather conditions in past years. The results will help you decide how hot, cold, wet, or windy it might be!

Date:

Astronomy

Jan. 22, 2014 Rise Set
Actual Time 7:17 AM CST 5:56 PM CST
Civil Twilight 6:52 AM CST 6:21 PM CST
Nautical Twilight 6:23 AM CST 6:49 PM CST
Astronomical Twilight 5:55 AM CST 7:18 PM CST
Moon 11:54 PM CST 10:51 AM CST
Length of Visible Light 11h 28m
Length of Day
10h 38m
Waning Gibbous, 65% of the Moon is Illuminated
Jan 22
Waning Gibbous
Jan 23
Last Quarter
Jan 30
New
Feb 6
First Quarter
Feb 14
Full

Hourly Weather History & Observations

Time (CST) Temp. Windchill Dew Point Humidity Pressure Visibility Wind Dir Wind Speed Gust Speed Precip Events Conditions
12:53 AM 39.9 °F 35.1 °F 27.0 °F 60% 30.25 in 10.0 mi NE 6.9 mph - N/A   Clear
1:53 AM 41.0 °F 35.8 °F 28.0 °F 60% 30.23 in 10.0 mi East 8.1 mph - N/A   Clear
2:53 AM 37.9 °F 35.5 °F 28.9 °F 70% 30.22 in 10.0 mi East 3.5 mph - N/A   Clear
3:53 AM 39.9 °F 35.8 °F 28.9 °F 65% 30.21 in 10.0 mi East 5.8 mph - N/A   Clear
4:53 AM 39.9 °F 37.8 °F 27.0 °F 60% 30.21 in 10.0 mi East 3.5 mph - N/A   Clear
5:53 AM 36.0 °F 32.1 °F 27.0 °F 70% 30.20 in 10.0 mi East 4.6 mph - N/A   Clear
6:53 AM 37.9 °F 34.4 °F 28.0 °F 68% 30.21 in 10.0 mi SE 4.6 mph - N/A   Clear
7:53 AM 39.0 °F 36.8 °F 32.0 °F 76% 30.20 in 10.0 mi SE 3.5 mph - N/A   Clear
8:53 AM 55.0 °F - 45.0 °F 69% 30.22 in 10.0 mi SSE 8.1 mph - N/A   Clear
9:53 AM 59.0 °F - 39.0 °F 48% 30.22 in 10.0 mi SSE 12.7 mph - N/A   Clear
10:53 AM 61.0 °F - 41.0 °F 48% 30.22 in 10.0 mi SSE 15.0 mph - N/A   Clear
11:53 AM 63.0 °F - 41.0 °F 45% 30.19 in 10.0 mi South 13.8 mph - N/A   Clear
12:53 PM 63.0 °F - 42.1 °F 46% 30.16 in 10.0 mi South 13.8 mph - N/A   Clear
2:53 PM 64.0 °F - 44.1 °F 48% 30.09 in 10.0 mi SSE 10.4 mph - N/A   Clear
3:53 PM 64.0 °F - 45.0 °F 50% 30.07 in 10.0 mi South 11.5 mph - N/A   Clear
4:53 PM 62.1 °F - 50.0 °F 65% 30.08 in 10.0 mi South 8.1 mph - N/A   Clear
6:53 PM 57.9 °F - 50.0 °F 75% 30.06 in 10.0 mi ESE 4.6 mph - N/A   Clear
7:53 PM 57.0 °F - 51.1 °F 81% 30.06 in 10.0 mi East 6.9 mph - N/A   Clear
8:53 PM 55.9 °F - 51.1 °F 84% 30.06 in 10.0 mi ESE 4.6 mph - N/A   Clear
9:53 PM 55.0 °F - 51.1 °F 86% 30.06 in 10.0 mi ESE 6.9 mph - N/A   Partly Cloudy
10:53 PM 53.1 °F - 50.0 °F 89% 30.06 in 10.0 mi SE 6.9 mph - N/A   Partly Cloudy
11:53 PM 55.9 °F - 53.1 °F 90% 30.06 in 10.0 mi SE 6.9 mph - N/A   Clear